Skip to main content.
NOAA NWS Hourly Roundups by Site

NOAA NWS Hourly Roundups by Site

Regional Weather Roundup for Omaha, NE

To Select Another Site Choose from List

Select Site:  

000
ASUS43 KOAX 231710
RWRNE

WEATHER ROUNDUP FOR NEBRASKA
NATIONAL WEATHER SERVICE OMAHA NE
1100 AM CST SUN JAN 23 2022

NOTES: SATELLITE DATA IS BEING USED TO AUGMENT CLOUD COVER ABOVE
       12000 FEET.
       "FAIR" INDICATES FEW OR NO CLOUDS BELOW 12,000 FEET WITH NO
       SIGNIFICANT WEATHER AND/OR OBSTRUCTIONS TO VISIBILITY.


NEZ001>004-019>022-054>056-231800-
NEBRASKA PANHANDLE

CITY           SKY/WX    TMP DP  RH WIND       PRES   REMARKS
SCOTTSBLUFF    PTSUNNY   43  21  41 W17G25    30.09F
ALLIANCE       CLOUDY    40  23  50 W22       30.03F WCI  30
CHADRON        CLOUDY    42  24  49 W18G30    30.02S
GORDON         CLOUDY    41  24  51 W16       29.99S
KIMBALL        SUNNY     41  23  49 W16       30.12F
SIDNEY         MOSUNNY   46  21  37 W24G36    30.08F
$$

NEZ057>060-069>072-079>082-231800-
SOUTHWEST NEBRASKA

CITY           SKY/WX    TMP DP  RH WIND       PRES   REMARKS
NORTH PLATTE   PTSUNNY   43  26  51 W14       30.06F
IMPERIAL       SUNNY     48  24  39 NW10      30.09F
LEXINGTON      PTSUNNY   43  27  52 W8        30.06F
MCCOOK         MOSUNNY   44  24  45 W14       30.10F
OGALLALA       MOSUNNY   44  26  48 W14       30.08S
$$

NEZ005>010-023>029-035>040-094-231800-
NORTH CENTRAL NEBRASKA

CITY           SKY/WX    TMP DP  RH WIND       PRES   REMARKS
VALENTINE      CLOUDY    40  33  76 W8        29.95F WCI  34
AINSWORTH      CLOUDY    37  33  85 SW9       29.96F WCI  30
BROKEN BOW     CLOUDY    40  29  64 SW12      30.02F WCI  33
O`NEILL        CLOUDY    22  17  81 S9        30.02F WCI  12
ORD            CLOUDY    34  28  79 S9        30.03F WCI  27
THEDFORD       CLOUDY    40  29  64 W13G18    30.00F WCI  33
$$

NEZ041-046>049-061>064-073>077-083>087-231800-
SOUTH CENTRAL NEBRASKA

CITY           SKY/WX    TMP DP  RH WIND       PRES   REMARKS
GRAND ISLAND   CLOUDY    31  22  69 SE6       30.10F WCI  25
AURORA         CLOUDY    28  19  70 SE5       30.11F WCI  22
HASTINGS       CLOUDY    38  31  76 SW7       30.09F WCI  33
HEBRON         CLOUDY    32  24  73 CALM      30.15S
HOLDREGE       MOSUNNY   43  28  55 W7        30.08S
KEARNEY        MOSUNNY   39  30  70 SW10      30.07F WCI  32
YORK           CLOUDY    25  18  74 CALM      30.13F
$$

NEZ011>018-030>034-042>045-231800-
NORTHEAST NEBRASKA

CITY           SKY/WX    TMP DP  RH WIND       PRES   REMARKS
NORFOLK        CLOUDY    19  11  70 SE3       30.10S
ALBION         CLOUDY    22  18  84 S8        30.09R WCI  13
BLAIR          MOSUNNY   18   7  61 CALM      30.13F
COLUMBUS       CLOUDY    19  13  77 SE3       30.15F
FREMONT        PTSUNNY   20  10  65 CALM      30.16S
TEKAMAH        MOSUNNY   18   6  59 N5        30.18F WCI  11
WAYNE          CLOUDY    16   9  74 S3        30.13S
$$

NEZ050>053-065>068-078-088>093-231800-
SOUTHEAST NEBRASKA

CITY           SKY/WX    TMP DP  RH WIND       PRES   REMARKS
LINCOLN        MOSUNNY   20  12  71 CALM      30.18S
OMAHA EPPLEY   PTSUNNY   20   9  62 CALM      30.16F
BEATRICE       MOSUNNY   26  18  70 CALM      30.16S
FALLS CITY     MOSUNNY   23  12  62 N7        30.19R WCI  15
NEBRASKA CITY  CLOUDY    20  14  76 NE5       30.17S WCI  14
PLATTSMOUTH    MOSUNNY   22  13  69 CALM      30.16S
$$

NEZ044-045-051>053-067-231800-
OMAHA AREA

CITY           SKY/WX    TMP DP  RH WIND       PRES   REMARKS
OMAHA EPPLEY   PTSUNNY   20   9  62 CALM      30.16F
BLAIR          MOSUNNY   18   7  61 CALM      30.13F
FREMONT        PTSUNNY   20  10  65 CALM      30.16S
MILLARD        MOSUNNY   21   9  58 CALM      30.16F
OFFUTT AFB     MOSUNNY   20   9  62 CALM      30.18F
PLATTSMOUTH    MOSUNNY   22  13  69 CALM      30.16S
WAHOO          PTSUNNY   20  13  72 CALM      30.16S
$$


 

View Past Reports for Omaha, NE.

Products Courtesy of NOAA-NWS
NWS Information Parsing Script by Ken True at Saratoga Weather - Script by SE Lincoln Weather.